"Pseudo-MPEC" for C0ZQG45

Created 2025 Jan 22 22:31:03 UT using Find_Orb

Click here for an explanation of pseudo-MPECs

 
 Astrometry: 
     C0ZQG45*mC2024 12 28.16114300 31 02.730+02 25 51.60   ~CSD2       VNEOCPV00
     C0ZQG45 mC2024 12 28.16542500 31 03.004+02 25 48.90   ~CSD2 21.56GVNEOCPV00
     C0ZQG45 mC2024 12 28.17335400 31 03.414+02 25 42.53   ~CSD2 22.42GVNEOCPV00
     C0ZQG45 KC2024 12 31.07245100 34 03.817+01 49 36.05   ~CV2V 24.34GVNEOCPV06
     C0ZQG45 KC2024 12 31.07880600 34 04.246+01 49 32.02   ~CV2V 22.45GVNEOCPV06
     C0ZQG45 KC2024 12 31.08516000 34 04.742+01 49 27.84   ~CV2V       VNEOCPV06

Station data:
(V00) Kitt Peak-Bok  (N31.963125 W111.600190)  US/Arizona.  Observers T. A.
   Pruyne, B. M. Africano, E. J. Christensen, G. A. Farneth, D. C. Fuls, A.
   R. Gibbs, A. D. Grauer, H. Gröller, J. A. Johnson, R. A. Kowalski, S. M.
   Larson, G. J. Leonard, D. Rankin, R. L. Seaman, F. C. Shelly, K. W.
   Wierzchoś. 2.25-m reflector + 4x4K mosaic CCD.
(V06) Catalina Sky Survey-Kuiper  (N32.416871 W110.732550)  US/Arizona.
   Observers T. A. Pruyne, B. M. Africano, E. J. Christensen, G. A. Farneth,
   D. C. Fuls, A. R. Gibbs, A. D. Grauer, H. Gröller, J. A. Johnson, R. A.
   Kowalski, S. M. Larson, G. J. Leonard, D. Rankin, R. L. Seaman, F. C.
   Shelly, K. W. Wierzchoś. 1.55-m reflector + CCD.

Orbital elements:  C0ZQG45
   Perihelion 2026 Apr 3.25855 TT =  6:12:19 (JD 2461133.75855)
Epoch 2024 Dec 31.0 TT = JDT 2460675.5   Earth MOID: 0.6255   Ma: 0.0474
M 180.63394675                      (J2000 ecliptic)             AutoNEOCP
n   0.39140797     Peri.    1.23944
a   1.85089991     Node   216.00263
e   0.1183415      Incl.   58.89106
P   2.518/919.739d H   18.84    G   0.15   q 1.63186150  Q 2.06993831
From 6 observations 2024 Dec. 28-31; mean residual 0".53
Residuals in arcseconds: 
241228 V00  .12+  .38-    241228 V00  .52-  .11+    241231 V06  .34-  .05+    
241228 V00  .41+  .27+    241231 V06  .88-  .45-    241231 V06  1.2+  .40+    

Ephemerides (geocentric):
Date (UTC) HH   RA             Dec           delta  r     elong  mag
---- --------  ------------   ------------  ------ ------ -----  ---
2025 01 22 23  01 01 26.473   -01 17 37.92  2.1672 2.0675  71.0 23.3
2025 01 23 00  01 01 29.761   -01 17 50.86  2.1678 2.0675  70.9 23.3
2025 01 23 01  01 01 33.050   -01 18 03.79  2.1684 2.0675  70.9 23.3
2025 01 23 02  01 01 36.340   -01 18 16.70  2.1690 2.0674  70.9 23.3
2025 01 23 03  01 01 39.632   -01 18 29.58  2.1695 2.0674  70.8 23.3
2025 01 23 04  01 01 42.924   -01 18 42.44  2.1701 2.0674  70.8 23.3
2025 01 23 05  01 01 46.217   -01 18 55.28  2.1707 2.0674  70.8 23.3
2025 01 23 06  01 01 49.511   -01 19 08.10  2.1712 2.0674  70.8 23.3
2025 01 23 07  01 01 52.806   -01 19 20.89  2.1718 2.0674  70.7 23.3
2025 01 23 08  01 01 56.102   -01 19 33.67  2.1724 2.0674  70.7 23.3
2025 01 23 09  01 01 59.399   -01 19 46.42  2.1729 2.0674  70.7 23.3
2025 01 23 10  01 02 02.697   -01 19 59.15  2.1735 2.0674  70.6 23.3
2025 01 23 11  01 02 05.996   -01 20 11.86  2.1741 2.0674  70.6 23.3
2025 01 23 12  01 02 09.295   -01 20 24.55  2.1746 2.0674  70.6 23.3
2025 01 23 13  01 02 12.596   -01 20 37.22  2.1752 2.0674  70.5 23.3
2025 01 23 14  01 02 15.898   -01 20 49.86  2.1758 2.0673  70.5 23.3
2025 01 23 15  01 02 19.200   -01 21 02.48  2.1763 2.0673  70.5 23.3
2025 01 23 16  01 02 22.504   -01 21 15.09  2.1769 2.0673  70.5 23.3
2025 01 23 17  01 02 25.808   -01 21 27.67  2.1775 2.0673  70.4 23.3
2025 01 23 18  01 02 29.114   -01 21 40.22  2.1780 2.0673  70.4 23.3
2025 01 23 19  01 02 32.420   -01 21 52.76  2.1786 2.0673  70.4 23.3
2025 01 23 20  01 02 35.727   -01 22 05.28  2.1792 2.0673  70.3 23.3
2025 01 23 21  01 02 39.035   -01 22 17.77  2.1797 2.0673  70.3 23.3
2025 01 23 22  01 02 42.345   -01 22 30.25  2.1803 2.0673  70.3 23.3
2025 01 23 23  01 02 45.655   -01 22 42.70  2.1809 2.0673  70.2 23.3
2025 01 24 00  01 02 48.966   -01 22 55.13  2.1814 2.0673  70.2 23.3
2025 01 24 01  01 02 52.278   -01 23 07.54  2.1820 2.0673  70.2 23.3
2025 01 24 02  01 02 55.591   -01 23 19.93  2.1826 2.0672  70.1 23.3
2025 01 24 03  01 02 58.904   -01 23 32.30  2.1831 2.0672  70.1 23.3
2025 01 24 04  01 03 02.219   -01 23 44.64  2.1837 2.0672  70.1 23.3
2025 01 24 05  01 03 05.535   -01 23 56.97  2.1843 2.0672  70.1 23.3
2025 01 24 06  01 03 08.852   -01 24 09.27  2.1848 2.0672  70.0 23.3
2025 01 24 07  01 03 12.169   -01 24 21.55  2.1854 2.0672  70.0 23.3
2025 01 24 08  01 03 15.488   -01 24 33.82  2.1860 2.0672  70.0 23.3
2025 01 24 09  01 03 18.807   -01 24 46.06  2.1865 2.0672  69.9 23.3
2025 01 24 10  01 03 22.128   -01 24 58.28  2.1871 2.0672  69.9 23.3
2025 01 24 11  01 03 25.449   -01 25 10.48  2.1877 2.0672  69.9 23.3
2025 01 24 12  01 03 28.771   -01 25 22.65  2.1882 2.0672  69.8 23.3
2025 01 24 13  01 03 32.094   -01 25 34.81  2.1888 2.0671  69.8 23.3
2025 01 24 14  01 03 35.418   -01 25 46.95  2.1893 2.0671  69.8 23.3
2025 01 24 15  01 03 38.743   -01 25 59.06  2.1899 2.0671  69.8 23.3
2025 01 24 16  01 03 42.069   -01 26 11.16  2.1905 2.0671  69.7 23.3
2025 01 24 17  01 03 45.396   -01 26 23.23  2.1910 2.0671  69.7 23.3
2025 01 24 18  01 03 48.724   -01 26 35.28  2.1916 2.0671  69.7 23.3
2025 01 24 19  01 03 52.053   -01 26 47.31  2.1922 2.0671  69.6 23.3
2025 01 24 20  01 03 55.383   -01 26 59.33  2.1927 2.0671  69.6 23.3
2025 01 24 21  01 03 58.713   -01 27 11.32  2.1933 2.0671  69.6 23.3
2025 01 24 22  01 04 02.045   -01 27 23.29  2.1939 2.0671  69.5 23.3